Location: Mexico
(19.4000°N, 99.1500°W)
Time: 00:42:47
(UTC-06:00)

ISS - Pass Details

Date: 12 October 2019
Orbit: 411 x 421 km, 51.6° (Epoch: 14 October)

Event Time Altitude Azimuth Distance (km) Brightness Sun altitude
Rises 19:33:22 0° 311° (NW) 2,330 0.8 -19.1°
Reaches altitude 10° 19:35:33 10° 302° (WNW) 1,468 -0.2 -19.6°
Maximum altitude 19:38:36 36° 234° (SW) 659 -2.4 -20.3°
Enters shadow 19:40:06 23° 183° (S) 916 -2.0 -20.6°
